Regional Weather Roundup
Issued by NWS Midland/Odessa, TX

Home | Current Version | Previous Version | Text Only | Print | Product List | Glossary On
Versions: 1 2 3 4 5 6 7 8 9 10 11 12 13 14 15 16 17 18 19 20 21 22 23 24 25 26 27 28 29 30 31 32 33 34 35 36 37 38 39 40 41 42 43 44 45 46 47 48 49 50
000
ASUS44 KMAF 030701
RWRMAF
MIDLAND AREA WEATHER ROUNDUP
NATIONAL WEATHER SERVICE MIDLAND TX
200 AM CDT TUE MAY 03 2016

...IN SOUTHWEST TEXAS AND SOUTHEAST NEW MEXICO...

CITY           SKY/WX    TMP DP  RH WIND       PRES   REMARKS
ALPINE         CLEAR     46  33  61 CALM      30.23S
ANDREWS        FAIR      52  38  58 S6        30.14F
ARTESIA        CLEAR     50  32  50 W8        30.13F
BIG SPRING     CLEAR     50  39  66 E7        30.15F
CARLSBAD       CLEAR     45  30  55 SW8       30.11F
DRYDEN           N/A     55  43  63 N7        30.11S
FORT STOCKTON  CLEAR     53  39  59 S9        30.14S
GUAD PASS      NOT AVBL
HOBBS          CLEAR     48  32  53 CALM      30.16S
MARFA          CLEAR     41  32  70 NW5       30.19F WCI  38
MIDLAND AIRPK  CLEAR     57  42  57 S7        30.14F
MIDLAND INTL   CLEAR     53  41  63 S7        30.13F
ODESSA         CLEAR     55  40  56 S6        30.14F
PECOS          CLEAR     51  32  48 CALM      30.13S
PRESIDIO       FAIR      63  40  42 MISG      30.10S
SEMINOLE       CLEAR     47  34  59 CALM      30.15F
SNYDER           N/A     50  41  69 CALM      30.13F
WINK           CLEAR     51  36  56 SE6       30.12S
$$
...OTHER STATIONS IN TEXAS...

CITY           SKY/WX    TMP DP  RH WIND       PRES   REMARKS
ABILENE        CLEAR     49  46  90 S7        30.12F
AMARILLO       CLEAR     44  36  73 S7        30.13F
AUSTIN         MOCLDY    57  52  83 N5        30.09F
BROWNSVILLE    CLOUDY    69  58  67 N12       30.03F
CORPUS CHRISTI CLOUDY    66  53  63 N13       30.05F
DALLAS FTW     PTCLDY    55  45  68 CALM      30.09F
DEL RIO        CLEAR     55  53  93 CALM      30.10R
EL PASO        CLEAR     59  31  34 S6        30.10S
HOUSTON INT    PTCLDY    60  55  83 N13       30.04S
LUBBOCK        CLEAR     48  32  53 SE5       30.14F
SAN ANGELO     CLEAR     46  43  89 CALM      30.12F
SAN ANTONIO    MOCLDY    58  49  72 N8        30.09F
WACO           CLEAR     52  49  89 NW7       30.10F
WICHITA FALLS  NOT AVBL
$$
...OTHER LOCATIONS IN NEW MEXICO...

CITY           SKY/WX    TMP DP  RH WIND       PRES   REMARKS
ALAMAGORDO     CLEAR     52  25  35 NW5       30.12S
ALBUQUERQUE    CLOUDY    53  39  59 SW5       30.20S
CANNON AFB     CLEAR     46  34  63 CALM      30.15S
CLOVIS         CLEAR     43  32  65 S6        30.16F WCI  39
HOLLOMAN AFB   CLEAR     56  29  35 SE7       30.10F
ROSWELL        CLEAR     48  31  51 SE7       30.14R
RUIDOSO          N/A     45  32  61 CALM      30.25S
SANTA FE       CLOUDY    47  35  63 SW14      30.19R
TRUTH OR CONSE MOCLDY    52  29  41 N5        30.13S
TUCUMCARI      CLEAR     46  37  71 S7        30.13R
$$




USA.gov is the U.S. government's official web portal to all federal, state and local government web resources and services.